Hourly Data Report for September 12, 2017

All times are specified in Local Standard Time (LST). Add 1 hour to adjust for Daylight Saving Time where and when it is observed.

NAPPAN AUTO
NOVA SCOTIA

45°45'34.400" N
64°14'29.200" W
19.80 m
8203702
71311
XNP

Download Data

Hourly Data (September 2017)
Hourly Data Report for September 12, 2017
Temp Definition
°C
Dew Point Temp Definition
°C
Rel Hum Definition
%
Wind Dir Definition
10's deg

Wind Spd Definition
km/h
Visibility Definition
km
Stn Press Definition
kPa
Hmdx Definition


Wind Chill Definition


Weather Definition


TIME
00:00 11.2 10.1 93 33 11   101.17     LegendNANA
01:00 10.9 9.6 92 36 11   101.12     LegendNANA
02:00 10.6 9.5 93 1 9   101.10     LegendNANA
03:00 9.8 8.7 93 2 13   101.00     LegendNANA
04:00 10.0 8.9 93 1 7   100.99     LegendNANA
05:00 9.2 8.1 93 1 10   100.99     LegendNANA
06:00 9.0 8.5 96 1 11   100.97     LegendNANA
07:00 11.0 10.1 94 35 14   100.99     LegendNANA
08:00 13.1 11.6 91 35 9   100.95     LegendNANA
09:00 15.6 11.8 78 34 19   100.95     LegendNANA
10:00 16.9 11.7 72 34 12   100.88     LegendNANA
11:00 18.0 9.2 56 36 13   100.85     LegendNANA
12:00 19.0 10.5 58 36 15   100.78     LegendNANA
13:00 20.1 12.1 60 32 10   100.70     LegendNANA
14:00 20.9 11.2 54 33 11   100.60     LegendNANA
15:00 20.8 11.8 56 26 12   100.54     LegendNANA
16:00 19.6 12.0 62 27 14   100.50     LegendNANA
17:00 17.5 10.8 65 24 15   100.46     LegendNANA
18:00 16.3 10.7 69 18 3   100.45     LegendNANA
19:00 14.3 10.3 77 17 6   100.41     LegendNANA
20:00 13.9 10.7 81 17 8   100.41     LegendNANA
21:00 13.6 10.8 83 18 8   100.36     LegendNANA
22:00 13.3 10.5 83 19 8   100.34     LegendNANA
23:00 13.2 11.0 86 19 12   100.29     LegendNANA

Notes on Data Quality.

Legend

  • E = Estimated
  • M = Missing
  • NA = Not Available
  • ‡ = Partner data that is not subject to review by the National Climate Archives
Date modified: